This is the latest recevied weather packets stored in our database for station/object N5TDX. If no packets are shown the sender has not sent any weather packets the latest 1 day(s).
| Time | Temp. | Humidity | Pressure | Rain* | Wind** | Luminosity | Snow |
|---|---|---|---|---|---|---|---|
| 1778052907 | 15.56° C | 74% | 1007 hPa | 0 mm | 0.89 m/s, 66° | - | - |
| 1778052604 | 15.56° C | 75% | 1007 hPa | 0 mm | 0 m/s | - | - |
| 1778052301 | 15.56° C | 75% | 1006.9 hPa | 0 mm | 1.79 m/s, 33° | - | - |
| 1778051999 | 15.56° C | 75% | 1006.9 hPa | 0 mm | 0.45 m/s, 57° | - | - |
| 1778051696 | 15.56° C | 74% | 1006.9 hPa | 0 mm | 1.34 m/s, 46° | - | - |
| 1778051393 | 15.56° C | 74% | 1006.9 hPa | 0 mm | 0.89 m/s, 45° | - | - |
| 1778051090 | 15.56° C | 74% | 1006.9 hPa | 0 mm | 0 m/s | - | - |
| 1778050787 | 15.56° C | 75% | 1007 hPa | 0 mm | 0 m/s | - | - |
| 1778050485 | 15.56° C | 75% | 1007 hPa | 0 mm | 0.45 m/s, 273° | - | - |
| 1778050181 | 15.56° C | 75% | 1006.9 hPa | 0 mm | 0.45 m/s, 39° | - | - |
| 1778049877 | 16.11° C | 75% | 1006.9 hPa | 0 mm | 0 m/s | - | - |
| 1778049574 | 16.11° C | 75% | 1006.8 hPa | 0 mm | 0.45 m/s, 327° | - | - |
| 1778049272 | 16.11° C | 75% | 1006.8 hPa | 0 mm | 0 m/s | - | - |
| 1778048969 | 16.11° C | 75% | 1006.9 hPa | 0 mm | 0.45 m/s, 17° | - | - |
| 1778048668 | 16.11° C | 75% | 1006.8 hPa | 0 mm | 0 m/s | - | - |
| 1778048363 | 16.11° C | 75% | 1006.9 hPa | 0 mm | 0 m/s | - | - |
| 1778048060 | 16.11° C | 75% | 1006.7 hPa | 0 mm | 0 m/s | - | - |
| 1778047758 | 16.11° C | 74% | 1006.8 hPa | 0 mm | 0.89 m/s, 349° | - | - |
| 1778047456 | 16.11° C | 74% | 1006.9 hPa | 0 mm | 0.45 m/s, 28° | - | - |
| 1778047153 | 16.67° C | 74% | 1006.9 hPa | 0 mm | 1.34 m/s, 42° | - | - |
| 1778046850 | 16.67° C | 74% | 1006.9 hPa | 0 mm | 0.89 m/s, 42° | - | - |
| 1778046546 | 16.67° C | 73% | 1006.9 hPa | 0 mm | 0.89 m/s, 290° | - | - |
| 1778046243 | 16.67° C | 73% | 1006.9 hPa | 0 mm | 1.34 m/s, 20° | - | - |
| 1778045939 | 16.67° C | 74% | 1006.8 hPa | 0 mm | 0 m/s | - | - |
| 1778045638 | 16.67° C | 73% | 1006.8 hPa | 0 mm | 0 m/s | - | - |
* Rain latest hour (hover to see other rain measurements)
** Current wind speed in m/s (hover to see current wind gust speed)